Retour au catalogue

ONEWEB-0458

ActifCommunicationsPO
NORAD 51648·PAYLOAD·🇬🇧 United Kingdom

Lancé Feb 10, 2022 depuis Guiana Space Centre

Loading…

Prochains Passages (prochaines 24 heures)

TLE

FraisSource: CelesTrak SupGP

Époque: Sep 14, 2026, 09:09 UTC

1 51648C 22012AC  26257.38141618 -.00178540  00000+0 -50211+0 0  2576
2 51648  87.8903  18.4972 0002044 103.0107 334.9116 13.11907985    16

Suivez ONEWEB-0458 en temps réel avec AllMySat

Download on the App Store